Location: Unspecified
(0.0000°N, 0.0000°E)
Time: 17:53:40
(UTC+00:00)

STARLINK 1059 - Pass Details

Date: 17 January 2020
Orbit: 436 x 438 km, 53.0° (Epoch: 18 January)

Event Time Altitude Azimuth Distance (km) Brightness Sun altitude
Rises 05:15:04 0° 205° (SSW) 2,409 6.9 -12.8°
Maximum altitude 05:20:34 45° 124° (SE) 601 4.4 -11.5°
Drops below altitude 10° 05:23:52 10° 50° (NE) 1,532 6.3 -10.7°
Sets 05:26:01 0° 44° (NE) 2,396 7.2 -10.2°
